• In Hungary
  • List of Countries
  • For 7 days
  • Water Temperature
  • Satellite Maps
  • Weather Map
  • News
  • Weather Widgets
  • user-avatar
    Login

    Hourly Weather Putivl

    Today, 23 September, Sunday

    Time Temperature Precipitation Wind Pressure Humidity
    00:00 +16°C° 0.2 mm 5 mps 745 mmHg 70%
    01:00 +14°C° 0.2 mm 6 mps 745 mmHg 76%
    02:00 +13°C° 0 mm 5 mps 745 mmHg 82%
    03:00 +10°C° 0.8 mm 5 mps 746 mmHg 83%
    04:00 +9°C° 0.8 mm 5 mps 746 mmHg 85%
    05:00 +8°C° 0.8 mm 5 mps 746 mmHg 87%
    06:00 +9°C° 0.1 mm 5 mps 747 mmHg 85%
    07:00 +9°C° 0.1 mm 5 mps 747 mmHg 84%
    08:00 +9°C° 0 mm 5 mps 747 mmHg 81%
    09:00 +10°C° 0 mm 5 mps 747 mmHg 76%
    10:00 +12°C° 0 mm 5 mps 747 mmHg 71%
    11:00 +13°C° 0 mm 4 mps 748 mmHg 65%
    12:00 +14°C° 0 mm 4 mps 748 mmHg 61%
    13:00 +15°C° 0 mm 4 mps 747 mmHg 57%
    14:00 +17°C° 0 mm 4 mps 747 mmHg 52%
    15:00 +15°C° 0 mm 4 mps 747 mmHg 55%
    16:00 +16°C° 0 mm 3 mps 747 mmHg 57%
    17:00 +14°C° 0 mm 3 mps 747 mmHg 60%
    18:00 +14°C° 0 mm 2 mps 747 mmHg 63%
    19:00 +13°C° 0 mm 2 mps 747 mmHg 66%
    20:00 +10°C° 0 mm 2 mps 747 mmHg 70%
    21:00 +10°C° 0 mm 2 mps 747 mmHg 71%
    22:00 +10°C° 0 mm 2 mps 747 mmHg 73%
    23:00 +9°C° 0 mm 2 mps 747 mmHg 74%

    Tomorrow, 24 September, Monday

    Time Temperature Precipitation Wind Pressure Humidity
    00:00 +9°C° 0 mm 2 mps 747 mmHg 75%
    01:00 +9°C° 0 mm 3 mps 747 mmHg 76%
    02:00 +9°C° 0 mm 3 mps 747 mmHg 76%
    03:00 +10°C° 0 mm 3 mps 746 mmHg 75%
    04:00 +10°C° 0 mm 4 mps 745 mmHg 73%
    05:00 +10°C° 0 mm 4 mps 744 mmHg 71%
    06:00 +11°C° 0.6 mm 4 mps 744 mmHg 72%
    07:00 +10°C° 0.6 mm 5 mps 744 mmHg 72%
    08:00 +12°C° 0.6 mm 5 mps 744 mmHg 73%
    09:00 +11°C° 1.4 mm 6 mps 743 mmHg 74%
    10:00 +11°C° 1.4 mm 7 mps 742 mmHg 75%
    11:00 +11°C° 1.4 mm 8 mps 741 mmHg 76%
    12:00 +11°C° 1.8 mm 9 mps 740 mmHg 79%
    13:00 +12°C° 1.8 mm 9 mps 739 mmHg 82%
    14:00 +12°C° 1.8 mm 10 mps 738 mmHg 84%
    15:00 +12°C° 2.6 mm 9 mps 738 mmHg 85%
    16:00 +12°C° 2.6 mm 9 mps 737 mmHg 86%
    17:00 +12°C° 2.6 mm 8 mps 737 mmHg 86%
    18:00 +11°C° 0.2 mm 8 mps 738 mmHg 85%
    19:00 +10°C° 0.2 mm 7 mps 738 mmHg 84%
    20:00 +9°C° 0.2 mm 7 mps 739 mmHg 83%
    21:00 +8°C° 0 mm 7 mps 739 mmHg 83%
    22:00 +8°C° 0 mm 7 mps 739 mmHg 82%
    23:00 +8°C° 0 mm 7 mps 740 mmHg 82%

    Day after tomorrow, 25 September, Tuesday

    Time Temperature Precipitation Wind Pressure Humidity
    00:00 +8°C° 0 mm 6 mps 740 mmHg 83%
    01:00 +7°C° 0 mm 6 mps 740 mmHg 85%
    02:00 +7°C° 0 mm 6 mps 741 mmHg 86%
    03:00 +5°C° 0 mm 6 mps 741 mmHg 88%
    04:00 +5°C° 0 mm 6 mps 741 mmHg 89%
    05:00 +5°C° 0 mm 6 mps 741 mmHg 90%
    06:00 +5°C° 0 mm 6 mps 742 mmHg 87%
    07:00 +7°C° 0 mm 6 mps 743 mmHg 84%
    08:00 +7°C° 0 mm 6 mps 743 mmHg 81%
    09:00 +8°C° 0 mm 6 mps 744 mmHg 77%
    10:00 +8°C° 0 mm 6 mps 745 mmHg 73%
    11:00 +9°C° 0 mm 7 mps 745 mmHg 69%
    12:00 +9°C° 0 mm 7 mps 746 mmHg 66%
    13:00 +9°C° 0 mm 7 mps 746 mmHg 63%
    14:00 +9°C° 0 mm 7 mps 747 mmHg 61%
    15:00 +9°C° 0 mm 6 mps 747 mmHg 61%
    16:00 +8°C° 0 mm 5 mps 748 mmHg 62%
    17:00 +8°C° 0 mm 5 mps 748 mmHg 63%
    18:00 +7°C° 0 mm 4 mps 749 mmHg 66%
    19:00 +7°C° 0 mm 3 mps 749 mmHg 69%
    20:00 +5°C° 0 mm 3 mps 750 mmHg 71%
    21:00 +5°C° 0 mm 3 mps 750 mmHg 74%
    22:00 +4°C° 0 mm 3 mps 751 mmHg 77%
    23:00 +4°C° 0 mm 3 mps 751 mmHg 79%

    26 September, Wednesday

    Time Temperature Precipitation Wind Pressure Humidity
    00:00 +3°C° 0 mm 3 mps 751 mmHg 81%
    01:00 +3°C° 0 mm 4 mps 752 mmHg 82%
    02:00 +3°C° 0 mm 4 mps 752 mmHg 84%
    03:00 +1°C° 0 mm 4 mps 753 mmHg 84%
    04:00 +1°C° 0 mm 4 mps 753 mmHg 85%
    05:00 +1°C° 0 mm 4 mps 754 mmHg 86%
    06:00 +1°C° 0 mm 4 mps 754 mmHg 81%
    07:00 +3°C° 0 mm 4 mps 755 mmHg 75%
    08:00 +3°C° 0 mm 5 mps 756 mmHg 70%
    09:00 +5°C° 0 mm 5 mps 756 mmHg 63%
    10:00 +7°C° 0 mm 5 mps 756 mmHg 56%
    11:00 +8°C° 0 mm 5 mps 757 mmHg 50%
    12:00 +8°C° 0 mm 5 mps 756 mmHg 48%
    13:00 +9°C° 0 mm 5 mps 756 mmHg 47%
    14:00 +9°C° 0 mm 5 mps 756 mmHg 46%
    15:00 +10°C° 0 mm 4 mps 756 mmHg 51%
    16:00 +9°C° 0 mm 3 mps 756 mmHg 55%
    17:00 +9°C° 0 mm 2 mps 756 mmHg 60%
    18:00 +8°C° 0 mm 2 mps 757 mmHg 64%
    19:00 +7°C° 0 mm 2 mps 757 mmHg 67%
    20:00 +6°C° 0 mm 2 mps 757 mmHg 71%
    21:00 +4°C° 0 mm 3 mps 756 mmHg 71%
    22:00 +4°C° 0 mm 3 mps 756 mmHg 71%
    23:00 +4°C° 0 mm 3 mps 756 mmHg 71%

    27 September, Thursday

    Time Temperature Precipitation Wind Pressure Humidity
    00:00 +4°C° 0 mm 4 mps 755 mmHg 69%
    01:00 +5°C° 0 mm 4 mps 755 mmHg 66%
    02:00 +5°C° 0 mm 5 mps 755 mmHg 64%
    03:00 +5°C° 0 mm 5 mps 754 mmHg 64%
    04:00 +4°C° 0 mm 6 mps 753 mmHg 64%
    05:00 +5°C° 0 mm 6 mps 753 mmHg 65%
    06:00 +5°C° 0 mm 7 mps 752 mmHg 64%
    07:00 +5°C° 0 mm 8 mps 752 mmHg 63%
    08:00 +6°C° 0 mm 8 mps 751 mmHg 63%
    09:00 +7°C° 0 mm 8 mps 751 mmHg 62%
    10:00 +8°C° 0 mm 9 mps 751 mmHg 61%
    11:00 +10°C° 0 mm 9 mps 750 mmHg 60%
    12:00 +10°C° 0 mm 8 mps 750 mmHg 63%
    13:00 +10°C° 0 mm 8 mps 750 mmHg 65%
    14:00 +10°C° 0 mm 8 mps 749 mmHg 68%
    15:00 +10°C° 0 mm 7 mps 749 mmHg 70%
    16:00 +10°C° 0 mm 6 mps 749 mmHg 72%
    17:00 +10°C° 0 mm 6 mps 749 mmHg 73%
    18:00 +10°C° 0 mm 5 mps 749 mmHg 75%
    19:00 +10°C° 0 mm 5 mps 750 mmHg 78%
    20:00 +10°C° 0 mm 5 mps 750 mmHg 80%
    21:00 +10°C° 0 mm 5 mps 750 mmHg 82%
    22:00 +9°C° 0 mm 5 mps 750 mmHg 85%
    23:00 +10°C° 0 mm 4 mps 750 mmHg 88%

    28 September, Friday

    Time Temperature Precipitation Wind Pressure Humidity
    00:00 +10°C° 0 mm 4 mps 750 mmHg 90%
    01:00 +8°C° 0 mm 4 mps 749 mmHg 93%
    02:00 +8°C° 0 mm 4 mps 749 mmHg 95%
    03:00 +8°C° 0 mm 4 mps 749 mmHg 95%
    04:00 +8°C° 0 mm 4 mps 749 mmHg 95%
    05:00 +8°C° 0 mm 4 mps 749 mmHg 95%
    06:00 +10°C° 0 mm 4 mps 749 mmHg 93%
    07:00 +10°C° 0 mm 4 mps 749 mmHg 91%
    08:00 +10°C° 0 mm 5 mps 749 mmHg 90%
    09:00 +13°C° 0 mm 5 mps 749 mmHg 85%
    10:00 +14°C° 0 mm 6 mps 748 mmHg 80%
    11:00 +15°C° 0 mm 6 mps 748 mmHg 75%
    12:00 +17°C° 0 mm 6 mps 748 mmHg 70%
    13:00 +19°C° 0 mm 6 mps 747 mmHg 66%
    14:00 +20°C° 0 mm 7 mps 747 mmHg 62%
    15:00 +19°C° 0 mm 6 mps 747 mmHg 66%
    16:00 +19°C° 0 mm 5 mps 747 mmHg 69%
    17:00 +18°C° 0 mm 4 mps 747 mmHg 73%
    18:00 +17°C° 0.1 mm 4 mps 747 mmHg 77%
    19:00 +15°C° 0.1 mm 4 mps 747 mmHg 81%
    20:00 +14°C° 0.1 mm 4 mps 747 mmHg 85%
    21:00 +14°C° 0 mm 3 mps 748 mmHg 87%
    22:00 +13°C° 0 mm 3 mps 748 mmHg 90%
    23:00 +14°C° 0 mm 2 mps 748 mmHg 93%
    Show more